Ardabil, Iran

9:09 AM +0330 on October 16, 2019 (GMT +0330)
Ardabil

Weather History for OITL - August, 2019

Change the Weather History Date:

Wednesday, August 28, 2019

  Actual Average Record
Temperature  
Mean Temperature 62 °F -  
Max Temperature 73 °F - - ()
Min Temperature 50 °F - - ()
Degree Days  
Heating Degree Days 4    
Growing Degree Days 12 (Base 50)    
Moisture  
Dew Point 52 °F    
Average Humidity 64    
Maximum Humidity 100    
Minimum Humidity 41    
Precipitation  
Precipitation 0.00 in - - ()
Sea Level Pressure  
Sea Level Pressure 30.09 in    
Wind  
Wind Speed 10 mph ()    
Max Wind Speed 31 mph    
Max Gust Speed -    
Visibility 5.4 miles    
Events Fog , Thunderstorm    
T = Trace of Precipitation, MM = Missing Value Source: Averaged Metar Reports

Daily Weather History Graph

Daily Weather History Graph

Search for Another Location

Airport or City:

Astronomy

Aug. 28, 2019 Rise Set
Actual Time 6:41 AM +0430 7:52 PM +0430
Civil Twilight 6:14 AM +0430 8:20 PM +0430
Nautical Twilight 5:41 AM +0430 8:52 PM +0430
Astronomical Twilight 5:07 AM +0430 9:26 PM +0430
Moon 3:50 AM +0430 (8/28) 6:43 PM +0430 (8/28)
Length of Visible Light 14h 05m
Length of Day
13h 11m
Waning Crescent, 7% of the Moon is Illuminated
Aug 28
Waning Crescent
Aug 30
New
Sep 6
First Quarter
Sep 14
Full
Sep 22
Last Quarter

Hourly Weather History & Observations

Time (+0430) Temp. Dew Point Humidity Pressure Visibility Wind Dir Wind Speed Gust Speed Precip Events Conditions
12:20 AM 62.6 °F 57.2 °F 82% 30.04 in 6.2 mi East 13.8 mph - N/A   Mostly Cloudy
1:20 AM 62.6 °F 57.2 °F 82% 30.04 in 6.2 mi North 13.8 mph - N/A Thunderstorm Thunderstorm
2:20 AM 59.0 °F 55.4 °F 88% 30.06 in 6.2 mi East 6.9 mph - N/A   Scattered Clouds
3:20 AM 57.2 °F 53.6 °F 88% 30.06 in 6.2 mi NNW 4.6 mph - N/A   Scattered Clouds
4:24 AM 57.2 °F 57.2 °F 100% 30.04 in 5.0 mi Calm Calm - N/A   Partly Cloudy
5:20 AM 51.8 °F 50.0 °F 94% 30.04 in 3.1 mi Calm Calm - N/A Fog Fog
6:20 AM 51.8 °F 50.0 °F 94% 30.06 in 0.1 mi Calm Calm - N/A Fog Fog
6:30 AM 51.8 °F 50.0 °F 94% 30.06 in 0.1 mi Calm Calm - N/A Fog Fog
7:21 AM 50.0 °F 50.0 °F 100% 30.06 in 0.1 mi NW 4.6 mph - N/A Fog Fog
7:30 AM 50.0 °F 50.0 °F 100% 30.06 in 0.1 mi NW 4.6 mph - N/A Fog Fog
8:23 AM 59.0 °F 53.6 °F 82% 30.09 in 6.2 mi Calm Calm - N/A   Partly Cloudy
8:30 AM 59.0 °F 53.6 °F 82% 30.09 in 6.2 mi Calm Calm - N/A   Partly Cloudy
9:22 AM 66.2 °F 50.0 °F 56% 30.09 in 6.2 mi Calm Calm - N/A   Partly Cloudy
9:30 AM 66.2 °F 50.0 °F 56% 30.09 in 6.2 mi Calm Calm - N/A   Partly Cloudy
10:20 AM 69.8 °F 48.2 °F 46% 30.09 in 6.2 mi NE 4.6 mph - N/A   Partly Cloudy
10:30 AM 69.8 °F 48.2 °F 46% 30.09 in 6.2 mi NE 4.6 mph - N/A   Partly Cloudy
11:23 AM 71.6 °F 51.8 °F 50% 30.09 in 6.2 mi East 11.5 mph - N/A   Partly Cloudy
11:30 AM 71.6 °F 51.8 °F 50% 30.09 in 6.2 mi East 11.5 mph - N/A   Partly Cloudy
12:00 PM 71.6 °F 57.2 °F 60% 30.09 in 6.2 mi ENE 18.4 mph - N/A   Partly Cloudy
12:23 PM 73.4 °F 57.2 °F 57% 30.09 in 6.2 mi East 18.4 mph - N/A   Partly Cloudy
12:30 PM 73.4 °F 57.2 °F 57% 30.09 in 6.2 mi East 18.4 mph - N/A   Partly Cloudy
1:00 PM 71.6 °F 57.2 °F 60% 30.09 in 6.2 mi ENE 18.4 mph - N/A   Partly Cloudy
1:21 PM 71.6 °F 59.0 °F 64% 30.09 in 6.2 mi ENE 19.6 mph - N/A   Partly Cloudy
1:30 PM 71.6 °F 59.0 °F 64% 30.09 in 6.2 mi ENE 19.6 mph - N/A   Partly Cloudy
2:30 PM 71.6 °F 59.0 °F 64% 30.09 in 6.2 mi ENE 26.5 mph - N/A   Partly Cloudy
3:22 PM 71.6 °F 51.8 °F 50% 30.09 in 6.2 mi ENE 31.1 mph - N/A   Partly Cloudy
3:30 PM 71.6 °F 51.8 °F 50% 30.09 in 6.2 mi ENE 31.1 mph - N/A   Partly Cloudy
4:00 PM 71.6 °F 50.0 °F 46% 30.09 in 6.2 mi ENE 28.8 mph - N/A   Partly Cloudy
4:23 PM 71.6 °F 46.4 °F 41% 30.09 in 6.2 mi ENE 26.5 mph - N/A   Partly Cloudy
5:00 PM 71.6 °F 46.4 °F 41% 30.09 in 6.2 mi ENE 26.5 mph - N/A   Partly Cloudy
5:22 PM 69.8 °F 46.4 °F 43% 30.09 in 6.2 mi ENE 24.2 mph - N/A   Partly Cloudy
6:00 PM 69.8 °F 48.2 °F 46% 30.09 in 6.2 mi ENE 24.2 mph - N/A   Partly Cloudy
6:30 PM 68.0 °F 50.0 °F 52% 30.09 in 6.2 mi ENE 26.5 mph - N/A   Partly Cloudy
7:00 PM 68.0 °F 48.2 °F 49% 30.09 in 6.2 mi ENE 24.2 mph - N/A   Partly Cloudy
7:21 PM 66.2 °F 48.2 °F 52% 30.12 in 6.2 mi ENE 21.9 mph - N/A   Partly Cloudy
8:24 PM 62.6 °F 48.2 °F 59% 30.12 in 6.2 mi ENE 18.4 mph - N/A   Partly Cloudy
9:21 PM 62.6 °F 46.4 °F 55% 30.15 in - ENE 16.1 mph - N/A   Clear
10:21 PM 62.6 °F 46.4 °F 55% 30.15 in - ENE 11.5 mph - N/A   Clear
11:21 PM 59.0 °F 44.6 °F 59% 30.18 in - ENE 9.2 mph - N/A   Clear